Tracking 18793 objects as of 26-September-2017
HD Live streaming from Space Station
objects crossing your sky now

FTV 3502

Track FTV 3502 now!
10-day predictions
FTV 3502 is classified as:


NORAD ID: 369
Int'l Code: 1962-039A
Perigee: 561.4 km
Apogee: 690.0 km
Inclination: 98.6 °
Period: 97.1 minutes
Semi major axis: 6996 km
RCS: 0.3492 m2 (medium)
Launch date: August 23, 1962
Source: United States (US)
Launch site: AIR FORCE WESTERN TEST RANGE (AFWTR)
aabbcc
Your satellite tracking list
Your tracking list is empty





NASA's NSSDC Master Catalog

Two Line Element Set (TLE):
1 00369U 62039A   17269.09569176  .00000147  00000-0  24581-4 0  9992
2 00369  98.5509  90.5378 0091956 313.9787  45.3867 14.83417394942952
Source of the keplerian elements: AFSPC